User: anonymous   Login
Location: Unspecified
(0.0000°N, 0.0000°E)
Time: 18:36:00
(UTC+00:00)
Language:

Nimbus 4 - Orbit

View from above orbital plane
View from above orbital plane
View from above satellite
View from above satellite

Ground track
Ground track

The orbit data is extracted from the following two-line orbital elements,

1  4362U 70025A   17289.83878133 -.00000037 +00000-0 +13241-4 0  9993
2  4362 100.0048 193.6863 0007794 144.3334 265.0321 13.44589100331433
Epoch (UTC): 16 October 2017 20:07:50
Eccentricity: 0.0007794
inclination: 100.0048°
perigee height: 1086 km
apogee height: 1098 km
right ascension of ascending node: 193.6863°
argument of perigee: 144.3334°
revolutions per day: 13.44589100
mean anomaly at epoch: 265.0321°
orbit number at epoch: 33143

The dashed part of the orbit path shows where the satellite is in the earth's shadow,  

DLR